DateTime,F1_A11,F1_S11,BsB_S11,BsG_S11,BsR_S11,BbsB_S11,BbsG_S11,BbsR_S11,BaB_A11,BaG_A11,BaR_A11,T_S11,U_S11,P_S11,T1_A11
2016-07-26T00:00:00Z,0000380,20000600,,,,,,,,,,27.3,02.2,0680.4,34.6
2016-07-26T00:01:00Z,0000380,20000600,,,,,,,,,,27.3,02.2,0680.4,34.6
2016-07-26T00:02:00Z,0000380,20000600,,,,,,,,,,27.3,02.2,0680.4,34.6
2016-07-26T00:03:00Z,0000380,60000600,,,,,,,,,,27.4,02.2,0680.4,34.6
2016-07-26T00:04:00Z,0000380,40000600,0003.00,0001.95,0001.23,0000.16,0000.09,0000.20,-000.04,-000.11,0000.10,27.5,02.5,0681.3,34.6
2016-07-26T00:05:00Z,0000380,00000600,0002.41,0001.77,0000.89,-000.19,0000.02,0000.22,0000.20,0000.18,-000.12,27.5,02.3,0681.4,34.6
2016-07-26T00:06:00Z,0000380,00000600,0002.46,0001.34,0001.62,0000.20,-000.02,0000.31,0000.32,0000.33,0000.76,27.5,02.4,0681.4,34.6
2016-07-26T00:07:00Z,0000380,00000600,0002.99,0001.30,0000.81,0000.23,0000.23,-000.02,0000.23,0000.19,-000.21,27.5,02.7,0681.4,34.6
2016-07-26T00:08:00Z,0000380,00000600,0002.55,0001.63,0001.39,-000.11,0000.23,0000.23,0000.17,0000.17,0000.18,27.5,02.7,0681.4,34.6
2016-07-26T00:09:00Z,0000380,00000600,0002.95,0002.26,0001.42,-000.20,0000.25,0000.30,0000.04,-000.10,0000.18,27.5,02.7,0681.4,34.6
2016-07-26T00:10:00Z,0000380,00000600,0002.27,0002.75,0000.94,-000.25,0000.48,0000.23,0000.25,0000.11,-000.12,27.5,02.5,0681.4,34.6
2016-07-26T00:11:00Z,0000380,00000600,0002.08,0001.50,0001.06,-000.16,0000.12,0000.06,-000.11,0000.17,0000.14,27.5,02.5,0681.5,34.6
2016-07-26T00:12:00Z,0000380,00000600,0002.31,0001.72,0000.87,-000.06,0000.29,0000.05,-000.13,-000.07,-000.15,27.5,02.3,0681.5,34.6
2016-07-26T00:13:00Z,0000380,00000600,0001.43,0001.13,0000.97,0000.17,0000.23,0000.00,0000.21,0000.06,0000.12,27.5,02.2,0681.4,34.6
2016-07-26T00:14:00Z,0000380,00000600,0002.58,0001.64,0001.62,-000.05,0000.22,-000.11,-000.27,-000.29,-000.07,27.5,02.0,0681.4,34.6
2016-07-26T00:15:00Z,0000380,00000600,0003.10,0002.40,0000.47,0000.14,0000.46,0000.36,0000.28,0000.22,-000.19,27.5,01.8,0681.4,34.6
2016-07-26T00:16:00Z,0000380,00000600,0002.27,0001.64,0000.63,0000.22,0000.40,0000.19,0000.05,0000.08,0000.25,27.5,01.8,0681.4,34.6
2016-07-26T00:17:00Z,0000380,00000600,0002.79,0001.95,0000.88,0000.11,0000.36,0000.11,0000.10,0000.04,0000.43,27.5,01.8,0681.4,34.6
2016-07-26T00:18:00Z,0000380,00000600,0002.27,0001.65,0000.78,-000.09,0000.37,0000.08,0000.13,0000.13,-000.24,27.5,01.8,0681.4,34.6
2016-07-26T00:19:00Z,0000380,00000600,0002.63,0001.50,0000.53,-000.58,0000.03,-000.22,0000.14,0000.10,0000.13,27.4,01.9,0681.4,34.6
2016-07-26T00:20:00Z,0000380,00000600,0002.36,0001.87,0001.16,0000.19,-000.20,0000.05,0000.13,0000.05,-000.14,27.5,01.9,0681.4,34.6
2016-07-26T00:21:00Z,0000380,00000600,0003.21,0000.89,0000.75,-000.02,0000.23,0000.30,0000.11,0000.24,0000.54,27.4,02.0,0681.4,34.6
2016-07-26T00:22:00Z,0000380,00000600,0003.25,0002.37,0001.41,0000.42,0000.39,0000.06,0000.14,0000.19,-000.45,27.4,02.0,0681.4,34.6
2016-07-26T00:23:00Z,0000380,00000600,0002.03,0001.85,0001.76,0000.20,-000.02,0000.69,0000.33,0000.08,0000.46,27.4,02.1,0681.4,34.6
2016-07-26T00:24:00Z,0000380,00000600,0002.86,0001.77,0001.06,-000.09,0000.08,0000.33,-000.00,0000.22,-000.02,27.4,02.1,0681.4,34.6
2016-07-26T00:25:00Z,0000380,00000600,0002.80,0002.40,0001.13,-000.70,0000.57,0000.16,0000.15,-000.00,0000.09,27.4,02.1,0681.4,34.6
2016-07-26T00:26:00Z,0000380,00000600,0002.31,0001.75,0001.08,0000.09,0000.28,0000.22,0000.02,0000.07,-000.07,27.3,02.2,0681.4,34.6
2016-07-26T00:27:00Z,0000380,00000600,0002.98,0001.55,0001.47,0000.00,0000.23,0000.55,0000.06,0000.19,0000.26,27.4,02.1,0681.4,34.6
2016-07-26T00:28:00Z,0000380,00000600,0002.25,0002.04,0000.96,-000.47,0000.45,-000.14,0000.11,0000.04,0000.25,27.3,02.0,0681.4,34.6
2016-07-26T00:29:00Z,0000380,00000600,0003.11,0001.50,0001.04,0000.09,0000.28,-000.08,0000.22,0000.08,0000.01,27.4,02.0,0681.4,34.6
2016-07-26T00:30:00Z,0000380,00000600,0002.23,0002.57,0001.59,-000.08,0000.02,0000.65,0000.24,0000.21,0000.20,27.4,02.2,0681.4,34.6
2016-07-26T00:31:00Z,0000380,00000600,0002.59,0002.24,0001.47,-000.40,0000.11,0000.37,-000.08,-000.06,-000.16,27.4,02.1,0681.4,34.6
2016-07-26T00:32:00Z,0000380,00000600,0002.66,0001.01,0001.38,0000.23,0000.34,0000.65,-000.03,0000.05,-000.15,27.4,01.9,0681.4,34.6
2016-07-26T00:33:00Z,0000380,00000600,0002.43,0001.49,0000.97,-000.17,0000.15,0000.37,0000.13,0000.19,0000.29,27.4,01.8,0681.4,34.6
2016-07-26T00:34:00Z,0000380,00000600,0002.00,0001.37,0001.17,0000.72,0000.28,0000.20,0000.32,0000.17,0000.16,27.4,01.9,0681.4,34.6
2016-07-26T00:35:00Z,0000380,00000600,0002.25,0001.78,0000.38,-000.08,0000.54,-000.23,0000.36,0000.35,0000.36,27.4,02.2,0681.4,34.6
2016-07-26T00:36:00Z,0000380,00000600,0003.23,0001.72,0001.55,0000.12,0000.14,0000.00,-000.04,0000.08,-000.14,27.4,02.3,0681.4,34.6
2016-07-26T00:37:00Z,0000380,00000600,0002.60,0002.38,0001.01,0000.23,0000.17,0000.28,0000.06,-000.06,0000.25,27.4,02.2,0681.4,34.6
2016-07-26T00:38:00Z,0000380,00000600,0002.35,0002.22,0000.60,0000.39,0000.34,0000.31,0000.37,0000.13,-000.05,27.4,02.1,0681.4,34.6
2016-07-26T00:39:00Z,0000380,00000600,0002.60,0002.00,0000.85,-000.30,0000.29,0000.40,0000.18,0000.23,0000.25,27.4,02.1,0681.4,34.6
2016-07-26T00:40:00Z,0000380,00000600,0002.70,0002.10,0001.15,-000.08,0000.42,-000.06,0000.06,0000.16,0000.11,27.4,02.2,0681.4,34.6
2016-07-26T00:41:00Z,0000380,00000600,0002.56,0002.22,0000.91,-000.45,0000.36,0000.09,0000.19,0000.28,0000.03,27.4,02.3,0681.4,34.6
2016-07-26T00:42:00Z,0000380,00000600,0002.48,0001.95,0000.69,-000.26,0000.23,0000.00,0000.28,0000.10,0000.37,27.5,02.5,0681.4,34.6
2016-07-26T00:43:00Z,0000380,00000600,0004.29,0002.08,0001.41,-000.50,0000.50,0000.42,0000.05,0000.08,0000.22,27.4,02.5,0681.4,34.6
2016-07-26T00:44:00Z,0000380,00000600,0002.37,0001.57,0001.48,0000.26,0000.22,0000.19,-000.16,0000.06,-000.38,27.4,02.2,0681.4,34.6
2016-07-26T00:45:00Z,0000380,00000600,0002.75,0001.12,0001.46,0000.22,-000.15,-000.05,0000.32,0000.09,0000.12,27.5,02.2,0681.4,34.7
2016-07-26T00:46:00Z,0000380,00000600,0003.12,0002.00,0001.70,0000.19,0000.22,-000.03,0000.16,0000.27,-000.03,27.5,02.2,0681.4,34.7
2016-07-26T00:47:00Z,0000380,00000600,0003.07,0002.41,0001.33,0000.28,0000.40,0000.12,0000.21,0000.44,0000.45,27.5,02.5,0681.4,34.7
2016-07-26T00:48:00Z,0000380,00000600,0002.72,0002.30,0001.18,0000.36,0000.23,0000.02,0000.38,0000.15,0000.00,27.5,02.6,0681.4,34.7
2016-07-26T00:49:00Z,0000380,00000600,0002.77,0001.30,0001.19,0000.30,0000.17,0000.42,-000.02,-000.23,0000.37,27.5,02.5,0681.4,34.7
2016-07-26T00:50:00Z,0000380,00000600,0002.49,0002.01,0001.20,0000.16,0000.60,0000.00,-000.11,0000.09,-000.19,27.5,02.4,0681.4,34.7
2016-07-26T00:51:00Z,0000380,00000600,0003.53,0001.91,0000.93,-000.17,0000.51,-000.16,0000.25,0000.04,-000.01,27.5,02.3,0681.4,34.7
2016-07-26T00:52:00Z,0000388,00000608,0002.84,0001.88,0001.64,0000.28,0000.40,0000.14,0000.03,0000.34,0000.17,27.5,02.4,0681.4,34.7
2016-07-26T00:53:00Z,0000388,00000608,0002.67,0001.60,0001.23,-000.17,0000.51,0000.50,0000.21,0000.01,0000.26,27.5,02.5,0681.5,34.7
2016-07-26T00:54:00Z,0000388,00000608,0003.29,0002.21,0001.38,0000.22,0000.42,0000.39,0000.28,0000.18,0000.11,27.5,02.4,0681.4,34.7
2016-07-26T00:55:00Z,0000388,00000608,0003.37,0002.14,0001.18,-000.26,0000.50,0000.20,0000.21,0000.23,0000.26,27.6,02.4,0681.4,34.7
2016-07-26T00:56:00Z,0000388,00000608,0002.81,0001.39,0001.24,-000.08,0000.37,0000.09,0000.06,0000.03,-000.06,27.6,02.6,0681.4,34.7
2016-07-26T00:57:00Z,0000388,40000608,,,,,,,,,,,,0681.8,34.7
2016-07-26T00:58:00Z,0000388,60000608,,,,,,,,,,27.5,02.5,0680.5,34.7
2016-07-26T00:59:00Z,0000388,20000608,,,,,,,,,,27.5,02.6,0680.4,34.7
2016-07-26T01:00:00Z,0000388,20000608,,,,,,,,,,27.5,02.7,0680.4,34.7
2016-07-26T01:01:00Z,0000388,20000608,,,,,,,,,,27.5,02.7,0680.4,34.7
2016-07-26T01:02:00Z,0000388,20000608,,,,,,,,,,27.5,02.7,0680.4,34.7
2016-07-26T01:03:00Z,0000388,60000608,,,,,,,,,,27.5,02.7,0680.4,34.7
2016-07-26T01:04:00Z,0000388,40000608,0003.88,0001.74,0001.40,0000.11,0000.28,0000.08,0000.09,0000.11,0000.10,27.7,03.1,0681.3,34.7
2016-07-26T01:05:00Z,0000388,00000608,0002.40,0002.09,0001.35,0000.17,-000.08,0000.28,-000.11,-000.07,0000.16,27.7,03.1,0681.4,34.7
2016-07-26T01:06:00Z,0000388,00000608,0003.60,0001.88,0000.99,0000.05,0000.43,0000.50,0000.13,0000.20,-000.21,27.7,03.1,0681.4,34.7
2016-07-26T01:07:00Z,0000388,00000608,0003.09,0002.53,0000.99,0000.51,0000.08,0000.78,0000.32,0000.12,0000.41,27.7,03.1,0681.4,34.7
2016-07-26T01:08:00Z,0000388,00000608,0003.24,0002.22,0000.70,0000.02,0000.34,0000.48,0000.16,0000.19,0000.18,27.7,03.0,0681.4,34.7
2016-07-26T01:09:00Z,0000388,00000608,0003.38,0001.44,0001.05,0000.17,0000.71,0000.47,0000.05,0000.28,-000.17,27.7,03.1,0681.4,34.7
2016-07-26T01:10:00Z,0000388,00000608,0002.93,0002.05,0001.60,0000.26,0000.19,0000.58,0000.29,0000.01,0000.25,27.7,03.1,0681.4,34.7
2016-07-26T01:11:00Z,0000388,00000608,0003.91,0002.48,0001.42,0000.45,-000.05,0000.33,0000.16,0000.23,0000.18,27.8,03.2,0681.5,34.7
2016-07-26T01:12:00Z,0000388,00000608,0003.16,0002.08,0001.13,0000.47,0000.00,0000.17,0000.22,0000.09,-000.13,27.7,03.3,0681.4,34.7
2016-07-26T01:13:00Z,0000388,00000608,0004.02,0002.13,0001.05,0000.44,-000.36,0000.05,0000.16,0000.06,0000.23,27.8,03.4,0681.5,34.7
2016-07-26T01:14:00Z,0000388,00000608,0003.15,0002.21,0001.22,0000.69,0000.09,0000.25,0000.03,0000.11,0000.39,27.7,03.3,0681.5,34.7
2016-07-26T01:15:00Z,0000388,00000608,0003.09,0002.58,0000.87,0000.59,0000.43,0000.31,0000.12,0000.11,-000.09,27.7,03.4,0681.5,34.7
2016-07-26T01:16:00Z,0000388,00000608,0003.74,0002.00,0001.33,0000.31,0000.25,0000.44,0000.22,0000.30,0000.33,27.7,03.4,0681.5,34.7
2016-07-26T01:17:00Z,0000388,00000608,0003.40,0002.39,0001.30,0000.73,0000.22,0000.73,0000.13,0000.17,-000.10,27.7,03.4,0681.5,34.7
2016-07-26T01:18:00Z,0000388,00000608,0004.11,0002.22,0000.83,0000.98,0000.34,0000.12,0000.19,-000.03,0000.34,27.7,03.4,0681.5,34.7
2016-07-26T01:19:00Z,0000388,00000608,0003.57,0002.40,0001.48,0000.59,0000.36,0000.42,-000.01,0000.08,-000.14,27.7,03.3,0681.5,34.7
2016-07-26T01:20:00Z,0000388,00000608,0003.32,0001.39,0000.72,0000.00,0000.00,0000.36,0000.36,0000.14,0000.09,27.7,03.5,0681.5,34.7
2016-07-26T01:21:00Z,0000388,00000608,0003.84,0001.84,0001.01,0000.36,-000.03,0000.19,0000.01,0000.06,0000.11,27.7,03.3,0681.4,34.7
2016-07-26T01:22:00Z,0000388,00000608,0003.63,0002.02,0000.68,0000.50,0000.33,0000.09,0000.06,0000.20,-000.10,27.7,03.4,0681.4,34.7
2016-07-26T01:23:00Z,0000388,00000608,0003.56,0002.15,0001.10,0000.95,0000.39,-000.09,0000.30,0000.13,0000.46,27.7,03.4,0681.4,34.7
2016-07-26T01:24:00Z,0000388,00000608,0003.39,0001.72,0001.01,0000.22,0000.39,0000.45,0000.14,0000.18,-000.05,27.7,03.4,0681.4,34.7
2016-07-26T01:25:00Z,0000388,00000608,0003.99,0002.54,0001.17,0000.42,-000.16,0000.30,-000.08,0000.09,0000.19,27.7,03.4,0681.5,34.7
2016-07-26T01:26:00Z,0000388,00000608,0004.03,0002.21,0001.19,0000.65,-000.16,0000.08,0000.27,0000.19,0000.15,27.7,03.4,0681.5,34.7
2016-07-26T01:27:00Z,0000388,00000608,0003.20,0002.07,0001.57,0000.53,0000.59,0000.70,0000.01,-000.03,0000.01,27.7,03.4,0681.5,34.7
2016-07-26T01:28:00Z,0000388,00000608,0003.09,0002.14,0000.96,0000.61,0000.60,0000.30,0000.06,0000.21,0000.06,27.7,03.4,0681.4,34.7
2016-07-26T01:29:00Z,0000388,00000608,0003.63,0001.27,0001.33,0000.31,0000.25,0000.31,0000.23,0000.09,0000.29,27.7,03.4,0681.5,34.7
2016-07-26T01:30:00Z,0000388,00000608,0004.02,0002.10,0001.38,0000.31,0000.09,0000.45,0000.17,0000.00,-000.21,27.7,03.4,0681.5,34.6
2016-07-26T01:31:00Z,0000388,00000608,0003.32,0003.12,0001.55,0001.01,0000.47,0000.27,0000.01,0000.10,0000.07,27.7,03.3,0681.5,34.6
2016-07-26T01:32:00Z,0000388,00000608,0003.53,0002.11,0001.11,0000.95,0000.76,0000.11,-000.02,0000.03,0000.23,27.7,03.2,0681.5,34.6
2016-07-26T01:33:00Z,0000388,00000608,0003.10,0001.80,0001.39,0000.45,0000.39,0000.92,0000.06,0000.10,-000.14,27.7,03.3,0681.5,34.6
2016-07-26T01:34:00Z,0000388,00000608,0002.55,0001.71,0001.55,-000.03,0000.59,0000.12,0000.25,0000.18,0000.21,27.7,03.2,0681.5,34.6
2016-07-26T01:35:00Z,0000388,00000608,0003.51,0002.13,0001.29,0000.34,-000.06,0000.17,0000.20,0000.07,0000.04,27.7,03.2,0681.4,34.6
2016-07-26T01:36:00Z,0000388,00000608,0002.55,0001.29,0001.16,0000.48,0000.43,0000.19,0000.11,-000.04,0000.04,27.7,03.2,0681.4,34.6
2016-07-26T01:37:00Z,0000388,00000608,0003.41,0002.39,0001.14,0000.47,0000.03,0000.37,-000.01,0000.32,0000.06,27.7,03.1,0681.4,34.6
2016-07-26T01:38:00Z,0000388,00000608,0003.87,0002.47,0000.72,0000.37,-000.20,0000.22,0000.09,0000.02,0000.08,27.7,03.1,0681.4,34.6
2016-07-26T01:39:00Z,0000388,00000608,0002.85,0002.66,0000.93,0000.70,0000.22,0000.23,0000.40,0000.05,-000.02,27.7,03.1,0681.4,34.6
2016-07-26T01:40:00Z,0000388,00000608,0004.04,0002.68,0001.50,0000.02,0000.19,0000.47,-000.05,0000.05,0000.14,27.7,03.0,0681.4,34.6
2016-07-26T01:41:00Z,0000388,00000608,0003.33,0001.59,0000.85,-000.37,-000.19,0000.05,0000.08,0000.43,0000.26,27.7,03.1,0681.4,34.6
2016-07-26T01:42:00Z,0000388,00000608,0002.80,0002.55,0001.03,0000.25,0000.45,0000.42,0000.08,-000.09,0000.05,27.6,03.1,0681.5,34.6
2016-07-26T01:43:00Z,0000388,00000608,0003.51,0001.71,0001.44,0000.76,0000.12,0000.42,0000.06,0000.04,-000.01,27.7,03.0,0681.5,34.6
2016-07-26T01:44:00Z,0000388,00000608,0002.62,0001.67,0001.33,0000.53,-000.11,0000.14,0000.11,-000.02,-000.01,27.7,02.9,0681.5,34.6
2016-07-26T01:45:00Z,0000388,00000608,0003.74,0001.98,0001.06,0000.53,0000.40,0000.31,0000.19,0000.32,0000.22,27.7,02.9,0681.5,34.6
2016-07-26T01:46:00Z,0000388,00000608,0003.25,0001.95,0001.76,0001.00,-000.03,0000.36,0000.08,0000.13,0000.27,27.7,03.0,0681.5,34.6
2016-07-26T01:47:00Z,0000388,00000608,0003.51,0002.69,0001.63,0000.39,0000.54,0000.50,-000.03,0000.02,-000.03,27.7,03.0,0681.5,34.6
2016-07-26T01:48:00Z,0000388,00000608,0003.14,0002.01,0001.37,0000.33,0000.39,0000.42,0000.34,0000.30,-000.02,27.7,03.0,0681.5,34.6
2016-07-26T01:49:00Z,0000388,00000608,0003.64,0002.12,0001.57,0000.39,0000.19,0000.20,0000.11,0000.12,0000.12,27.7,02.9,0681.5,34.6
2016-07-26T01:50:00Z,0000388,00000608,0003.61,0002.17,0001.48,0000.06,0000.42,0000.39,0000.27,0000.04,0000.46,27.7,03.0,0681.5,34.6
2016-07-26T01:51:00Z,0000388,00000608,0003.22,0002.12,0001.67,0000.40,-000.05,0000.06,0000.05,0000.25,-000.04,27.7,03.0,0681.5,34.6
2016-07-26T01:52:00Z,0000388,00000608,0003.10,0001.77,0001.28,-000.17,0000.36,0000.20,0000.12,0000.29,0000.16,27.7,03.2,0681.5,34.6
2016-07-26T01:53:00Z,0000388,00000608,0003.61,0002.07,0001.58,0000.23,0000.26,0000.30,0000.52,-000.04,0000.11,27.7,03.3,0681.5,34.6
2016-07-26T01:54:00Z,0000388,00000608,0003.02,0001.86,0000.97,0001.06,0000.23,0000.42,0000.05,0000.13,0000.19,27.7,03.3,0681.5,34.6
2016-07-26T01:55:00Z,0000388,00000608,0003.75,0002.26,0001.53,0000.61,0000.28,0000.64,0000.18,0000.33,-000.13,27.7,03.4,0681.5,34.6
2016-07-26T01:56:00Z,0000388,00000608,0002.87,0002.36,0001.37,0000.53,0000.29,0000.28,0000.10,-000.01,0000.47,27.7,03.4,0681.5,34.6
2016-07-26T01:57:00Z,0000388,40000608,,,,,,,,,,,,0681.3,34.6
2016-07-26T01:58:00Z,0000388,60000608,,,,,,,,,,27.6,03.3,0680.5,34.6
2016-07-26T01:59:00Z,0000388,20000608,,,,,,,,,,27.5,03.2,0680.5,34.6
2016-07-26T02:00:00Z,0000388,20000608,,,,,,,,,,27.5,03.2,0680.5,34.7
2016-07-26T02:01:00Z,0000388,20000608,,,,,,,,,,27.5,03.2,0680.5,34.7
2016-07-26T02:02:00Z,0000388,20000608,,,,,,,,,,27.5,03.2,0680.5,34.7
2016-07-26T02:03:00Z,0000388,60000608,,,,,,,,,,27.6,03.2,0680.5,34.7
2016-07-26T02:04:00Z,0000388,40000608,0003.34,0002.17,0000.77,0000.20,0000.51,-000.16,0000.04,0000.09,0000.21,27.8,03.4,0681.4,34.7
2016-07-26T02:05:00Z,0000388,00000608,0004.63,0001.67,0001.16,0000.55,0000.37,0000.23,0000.07,0000.21,0000.16,27.8,03.4,0681.5,34.7
2016-07-26T02:06:00Z,0000388,00000608,0004.15,0002.26,0001.48,0000.61,0000.33,0000.17,0000.19,0000.21,0000.12,27.8,03.4,0681.5,34.7
2016-07-26T02:07:00Z,0000388,00000608,0003.03,0002.43,0000.81,0000.61,0000.79,0000.02,0000.13,-000.01,0000.06,27.8,03.4,0681.5,34.7
2016-07-26T02:08:00Z,0000388,00000608,0003.17,0002.65,0000.70,-000.11,0000.50,0000.16,-000.01,0000.06,-000.35,27.8,03.4,0681.5,34.7
2016-07-26T02:09:00Z,0000388,00000608,0004.40,0002.59,0001.29,0000.53,0000.14,0000.06,0000.15,0000.11,0000.64,27.8,03.4,0681.5,34.7
2016-07-26T02:10:00Z,0000388,00000608,0003.47,0002.17,0001.52,0000.19,0000.57,0000.48,0000.22,0000.16,0000.22,27.8,03.4,0681.5,34.7
2016-07-26T02:11:00Z,0000388,00000608,0003.00,0002.06,0001.66,0000.11,0000.57,0000.36,0000.21,0000.06,-000.29,27.8,03.4,0681.5,34.7
2016-07-26T02:12:00Z,0000388,00000608,0003.67,0002.24,0001.07,0000.33,0000.51,0000.19,-000.09,0000.17,0000.26,27.8,03.4,0681.5,34.7
2016-07-26T02:13:00Z,0000388,00000608,0004.10,0002.51,0000.99,0000.20,0000.65,0000.28,0000.29,0000.21,0000.22,27.8,03.4,0681.5,34.7
2016-07-26T02:14:00Z,0000388,00000608,0004.37,0002.52,0001.08,0001.00,0000.47,0000.16,0000.21,0000.03,0000.10,27.8,03.4,0681.5,34.7
2016-07-26T02:15:00Z,0000388,00000608,0003.52,0001.98,0000.97,0000.95,0000.19,0000.30,0000.05,0000.02,-000.11,27.8,03.5,0681.5,34.6
2016-07-26T02:16:00Z,0000388,00000608,0004.24,0002.54,0001.25,0000.25,0000.26,0000.37,0000.01,0000.19,0000.19,27.8,03.4,0681.5,34.6
2016-07-26T02:17:00Z,0000388,00000608,0004.58,0001.68,0001.06,0000.33,0000.22,0000.09,0000.08,0000.15,0000.09,27.7,03.5,0681.5,34.6
2016-07-26T02:18:00Z,0000388,00000608,0003.99,0002.26,0001.37,0000.53,0000.67,0000.28,0000.10,-000.00,0000.12,27.7,03.5,0681.5,34.6
2016-07-26T02:19:00Z,0000388,00010608,0003.72,0002.14,0001.86,0000.59,0000.28,0000.55,0000.26,0000.11,0000.06,27.8,03.5,0681.5,34.6
2016-07-26T02:20:00Z,0000388,00000608,0002.99,0002.34,0001.31,0000.76,0000.12,0000.36,-000.01,0000.11,-000.20,27.8,03.4,0681.5,34.6
2016-07-26T02:21:00Z,0000388,00000608,0003.13,0002.51,0000.98,0000.58,0000.36,0000.12,0000.02,0000.15,0000.48,27.8,03.5,0681.5,34.6
2016-07-26T02:22:00Z,0000388,00000608,0003.75,0001.90,0001.47,0000.67,0000.29,0000.41,0000.18,0000.14,-000.39,27.7,03.3,0681.5,34.6
2016-07-26T02:23:00Z,0000388,00000608,0003.67,0002.26,0001.37,0000.70,0000.19,0000.11,0000.28,0000.08,0000.42,27.8,03.3,0681.5,34.6
2016-07-26T02:24:00Z,0000388,00000608,0003.13,0002.07,0001.09,0000.55,0000.33,0000.00,0000.04,0000.20,0000.23,27.8,03.3,0681.5,34.6
2016-07-26T02:25:00Z,0000388,00000608,0003.55,0001.89,0001.65,0000.42,0000.61,0000.23,0000.10,-000.03,-000.41,27.8,03.3,0681.5,34.6
2016-07-26T02:26:00Z,0000388,00000608,0003.72,0002.36,0001.17,0000.58,0000.34,0000.19,-000.02,0000.22,0000.23,27.8,03.4,0681.5,34.6
2016-07-26T02:27:00Z,0000388,00000608,0003.41,0003.01,0000.85,0000.31,0000.37,0000.05,0000.18,0000.10,0000.50,27.8,03.4,0681.5,34.6
2016-07-26T02:28:00Z,000038A,0000060A,0003.67,0002.18,0001.31,0000.25,0000.36,0000.36,0000.31,0000.07,-000.21,27.8,03.3,0681.5,34.6
2016-07-26T02:29:00Z,000038A,0000060A,0004.26,0001.98,0001.17,0000.69,0000.71,0000.44,-000.00,0000.14,0000.22,27.8,03.4,0681.4,34.6
2016-07-26T02:30:00Z,0000382,00000602,0002.89,0002.33,0001.08,0000.41,0000.42,-000.02,0000.10,0000.06,0000.11,27.8,03.4,0681.4,34.7
2016-07-26T02:31:00Z,000038A,0000060A,0004.25,0002.57,0001.12,0000.79,0000.43,0000.19,0000.26,0000.09,0000.03,27.8,03.3,0681.5,34.7
2016-07-26T02:32:00Z,0000388,00000608,0003.62,0001.92,0000.99,0001.11,0000.12,0000.45,0000.06,0000.18,0000.40,27.8,03.3,0681.4,34.7
2016-07-26T02:33:00Z,0000388,00000608,0003.52,0001.98,0001.35,0000.58,0000.81,-000.22,0000.33,0000.19,0000.10,27.8,03.4,0681.4,34.7
2016-07-26T02:34:00Z,0000388,00000608,0003.33,0002.30,0001.38,0000.56,0000.40,0000.22,0000.03,0000.19,-000.07,27.8,03.4,0681.5,34.7
2016-07-26T02:35:00Z,0000388,00000608,0003.85,0001.80,0001.16,0000.65,-000.20,0000.08,0000.10,-000.11,-000.02,27.8,03.3,0681.5,34.7
2016-07-26T02:36:00Z,0000388,00000608,0003.60,0002.17,0001.26,0000.16,0000.59,0000.19,0000.35,0000.30,0000.11,27.8,03.2,0681.5,34.7
2016-07-26T02:37:00Z,0000388,00000608,0003.95,0002.83,0001.32,0000.33,0000.22,-000.09,-000.10,0000.14,0000.25,27.8,03.3,0681.5,34.7
2016-07-26T02:38:00Z,0000388,00000608,0002.99,0002.19,0001.36,0000.70,0000.57,0000.33,0000.07,0000.08,0000.12,27.8,03.3,0681.5,34.7
2016-07-26T02:39:00Z,0000388,00000608,0003.29,0002.09,0000.84,0000.45,0000.20,0000.00,0000.25,0000.12,0000.08,27.8,03.3,0681.5,34.7
2016-07-26T02:40:00Z,0000388,00000608,0004.31,0001.95,0000.65,0000.95,0000.43,0000.25,0000.09,0000.15,0000.06,27.8,03.4,0681.5,34.7
2016-07-26T02:41:00Z,0000388,00000608,0003.57,0002.08,0001.00,0000.97,0000.47,0000.42,-000.12,0000.01,0000.18,27.8,03.4,0681.5,34.7
2016-07-26T02:42:00Z,0000388,00000608,0004.29,0002.44,0001.21,0000.53,0000.56,0000.14,0000.27,0000.10,0000.07,27.8,03.4,0681.5,34.7
2016-07-26T02:43:00Z,0000388,00000608,0003.86,0002.25,0000.91,0000.31,0000.59,0000.20,0000.15,0000.19,-000.03,27.8,03.4,0681.5,34.7
2016-07-26T02:44:00Z,0000388,00000608,0003.78,0002.68,0000.78,0000.33,0000.74,0000.55,0000.14,0000.11,0000.18,27.8,03.4,0681.5,34.7
2016-07-26T02:45:00Z,0000388,00000608,0003.54,0002.14,0001.25,0000.81,0000.56,0000.22,0000.19,0000.05,-000.20,27.8,03.4,0681.5,34.7
2016-07-26T02:46:00Z,0000388,00000608,0004.15,0002.07,0001.57,0000.53,0000.51,0000.50,0000.05,0000.20,0000.31,27.8,03.4,0681.5,34.7
2016-07-26T02:47:00Z,0000388,00000608,0003.52,0002.36,0000.41,0000.39,0000.73,0000.17,-000.06,-000.01,-000.01,27.8,03.4,0681.5,34.7
2016-07-26T02:48:00Z,0000388,00000608,0003.98,0001.77,0001.46,0000.56,0000.64,0000.09,0000.07,0000.13,-000.15,27.8,03.4,0681.5,34.7
2016-07-26T02:49:00Z,0000388,00000608,0002.89,0002.18,0001.52,-000.06,0000.23,0000.11,0000.27,0000.09,0000.58,27.8,03.3,0681.5,34.7
2016-07-26T02:50:00Z,0000388,00000608,0003.21,0002.95,0000.61,0000.55,0000.68,0000.16,-000.01,0000.09,-000.19,27.8,03.3,0681.5,34.7
2016-07-26T02:51:00Z,0000388,00000608,0003.95,0002.27,0001.16,0000.47,0000.12,0000.34,0000.20,0000.21,0000.27,27.8,03.3,0681.5,34.7
2016-07-26T02:52:00Z,0000388,00000608,0003.24,0002.38,0001.06,0001.01,0000.57,0000.09,0000.18,0000.16,0000.08,27.8,03.4,0681.5,34.7
2016-07-26T02:53:00Z,0000388,00000608,0004.63,0001.90,0001.22,0000.23,0000.34,0000.12,0000.14,0000.02,0000.14,27.8,03.4,0681.5,34.7
2016-07-26T02:54:00Z,0000388,00000608,0003.24,0002.66,0001.55,0000.28,0000.59,0000.08,0000.18,-000.03,0000.05,27.8,03.4,0681.5,34.7
2016-07-26T02:55:00Z,0000388,00000608,0004.56,0002.32,0001.21,0000.73,0000.65,0000.11,-000.06,0000.16,0000.01,27.8,03.4,0681.5,34.7
2016-07-26T02:56:00Z,0000388,00000608,0004.05,0001.78,0001.62,0000.48,0000.45,0000.47,0000.13,0000.16,0000.27,27.8,03.3,0681.5,34.7
2016-07-26T02:57:00Z,0000388,40000608,,,,,,,,,,,,0681.8,34.7
2016-07-26T02:58:00Z,0000388,60000608,,,,,,,,,,27.7,03.4,0680.5,34.7
2016-07-26T02:59:00Z,0000380,20000600,,,,,,,,,,27.7,03.4,0680.5,34.7
2016-07-26T03:00:00Z,0000380,20000600,,,,,,,,,,27.7,03.4,0680.5,34.7
2016-07-26T03:01:00Z,0000380,20000600,,,,,,,,,,27.7,03.4,0680.5,34.7
2016-07-26T03:02:00Z,0000380,20000600,,,,,,,,,,27.7,03.4,0680.5,34.7
2016-07-26T03:03:00Z,0000380,60000600,,,,,,,,,,27.7,03.4,0680.5,34.7
2016-07-26T03:04:00Z,0000380,40000600,0003.15,0002.34,0001.27,0001.01,0000.51,0000.41,0000.07,0000.02,-000.24,27.8,03.5,0681.4,34.7
2016-07-26T03:05:00Z,0000380,00000600,0004.09,0002.10,0001.71,0000.51,0000.45,0000.33,0000.18,0000.08,0000.44,27.8,03.4,0681.5,34.7
2016-07-26T03:06:00Z,0000380,00000600,0003.31,0002.40,0001.07,0000.37,0000.78,0000.51,0000.15,0000.19,-000.05,27.8,03.5,0681.5,34.7
2016-07-26T03:07:00Z,0000380,00000600,0004.27,0002.47,0001.43,0000.97,0000.50,0000.44,0000.19,-000.07,0000.26,27.8,03.5,0681.5,34.7
2016-07-26T03:08:00Z,0000380,00000600,0003.10,0002.89,0001.53,0000.59,0000.43,0000.64,0000.04,0000.34,-000.26,27.8,03.5,0681.5,34.7
2016-07-26T03:09:00Z,0000380,00000600,0004.12,0002.26,0001.44,0000.41,0000.61,0000.48,0000.20,0000.04,0000.33,27.8,03.5,0681.5,34.7
2016-07-26T03:10:00Z,0000380,00000600,0003.96,0001.82,0001.54,0000.83,0000.33,0000.58,0000.29,0000.15,0000.12,27.8,03.5,0681.5,34.7
2016-07-26T03:11:00Z,0000380,00000600,0002.39,0001.96,0001.85,0000.73,0000.59,0000.73,-000.12,0000.06,0000.02,27.8,03.4,0681.5,34.7
2016-07-26T03:12:00Z,0000380,00000600,0003.76,0002.50,0001.77,0000.44,0000.23,0000.59,-000.00,0000.29,0000.07,27.8,03.5,0681.5,34.7